RH
71 82 82 79 79 84 79 80 88 81 57 57 49 47 35 30 31 27 24 20 17 19 20 20 21 22 20 19 17 14 12 13 20 23 24 23 23 21 34 65 100 92 77 77
54 72 77 77 83 83 85 79 84 74 58 59 58 47 36 46 31 28 24 22 21 17 18 20 21 22 23 21 20 18 15 12 11 14 22 22 24 25 55 27 73 85 91 79
21 32 55 65 56 56 65 68 80 68 51 59 64 51 39 49 43 30 28 23 20 20 16 17 18 20 22 23 22 20 19 16 13 11 13 17 26 25 24 19 24 27 52 60
10 11 18 16 18 21 34 54 64 65 50 68 69 49 36 41 43 36 30 29 22 20 19 17 16 17 18 19 23 22 21 19 16 14 13 12 17 18 30 28 23 22 23 80
9 11 11 12 13 14 17 23 40 47 43 52 46 39 54 37 44 40 33 29 27 22 20 19 16 16 17 18 20 24 23 21 20 18 16 15 13 12 13 84 45 22 18 60
10 11 11 12 12 12 11 13 13 17 21 18 35 26 36 23 45 37 34 29 26 25 21 19 20 17 16 17 17 20 22 23 22 20 20 18 16 14 12 13 79 31 20 42
10 11 11 11 12 12 13 13 13 12 11 10 15 14 19 22 38 36 36 30 29 26 24 20 18 19 18 16 17 18 18 19 21 22 21 20 19 17 15 14 18 64 96 73
10 10 10 10 11 11 12 12 12 13 11 9 9 9 10 17 26 28 27 24 28 27 25 24 21 19 18 18 17 17 16 18 18 20 23 22 20 18 19 16 14 14 54 100
10 10 10 10 11 11 11 11 11 12 12 12 11 11 11 12 15 18 19 19 24 29 28 25 24 22 21 20 18 16 16 17 16 18 20 23 24 20 18 19 18 15 14 88
13 12 11 10 10 11 11 11 11 11 11 11 12 14 13 14 13 14 16 18 21 24 31 29 25 23 22 21 19 19 18 16 17 17 17 19 23 24 21 19 18 18 16 14
13 15 14 13 11 10 10 10 11 11 11 12 12 13 15 16 14 14 14 16 19 24 30 33 33 27 22 22 21 20 19 18 18 17 18 18 18 21 23 23 20 18 17 15
11 12 14 16 16 14 13 12 11 10 10 12 12 12 15 17 17 15 15 16 17 22 31 34 32 32 31 25 22 22 21 20 20 20 19 18 18 18 19 23 24 21 18 17
10 11 11 13 16 17 18 17 15 13 12 11 11 12 14 16 18 18 19 18 18 20 23 28 31 29 28 29 27 24 22 20 20 21 21 20 18 18 18 18 22 24 21 19
9 10 10 11 11 12 14 16 17 17 16 15 12 11 13 14 15 17 19 20 20 21 22 22 22 23 24 25 26 26 23 22 21 21 20 20 19 18 18 18 19 23 24 22
12 11 10 10 10 11 12 13 15 16 17 16 15 14 13 13 14 15 15 16 18 19 20 21 22 22 21 22 23 24 24 23 22 22 21 20 18 18 18 18 19 21 24 25
12 13 13 12 11 10 12 13 13 16 17 16 16 15 14 12 12 12 14 15 15 16 17 18 18 19 20 21 22 22 23 23 23 22 20 20 19 18 18 18 18 19 22 24
16 13 12 12 11 11 12 12 14 15 17 17 16 16 16 14 13 12 11 12 13 14 14 15 16 16 16 16 17 18 18 19 20 20 20 20 20 20 19 18 18 18 19 20
18 18 16 14 13 12 12 12 14 15 16 18 18 17 16 16 16 14 13 12 12 12 12 14 15 15 16 16 16 16 16 18 18 19 20 20 21 21 21 20 20 19 19 19
26 25 20 19 19 16 15 14 14 16 16 17 18 18 17 17 16 16 15 14 13 13 13 13 14 14 15 15 16 16 17 17 18 19 19 20 22 22 22 22 22 21 20 19
30 30 31 30 26 22 21 19 17 17 17 17 17 18 19 18 17 18 16 15 14 14 14 13 13 14 14 16 17 18 18 19 19 19 20 21 22 22 23 24 23 22 22 21
38 36 34 34 33 34 32 29 24 22 19 17 17 17 17 18 18 17 17 17 17 16 15 15 15 16 16 15 15 16 17 18 19 20 21 22 22 22 23 24 24 24 23 22
41 42 39 37 34 32 32 31 31 31 27 23 20 17 15 16 16 17 17 16 16 16 15 15 15 16 16 17 17 17 18 18 19 19 20 21 22 23 24 24 24 25 25 23
43 41 40 39 40 35 35 34 31 27 25 26 26 23 19 14 14 14 15 16 16 15 14 15 15 15 15 16 16 17 17 18 18 18 18 18 19 20 21 23 23 24 25 25
50 47 49 48 39 33 30 33 32 28 22 19 18 18 18 21 18 13 12 12 12 12 13 13 14 14 14 14 15 15 16 17 17 17 17 18 18 19 20 21 21 22 23 24
46 44 43 45 38 30 25 23 22 17 14 15 15 13 12 13 15 14 15 14 11 11 11 11 11 12 12 12 13 13 14 14 15 16 17 17 17 17 18 19 19 19 20 21
46 51 60 59 45 40 32 27 24 18 13 9 9 9 10 12 11 9 10 10 11 12 10 10 10 10 10 10 11 11 11 12 13 13 14 14 16 17 17 18 18 18 18 18
Wind_Speed
86 89 91 94 96 97 96 94 93 95 95 90 93 95 101 101 102 102 102 100 98 98 100 104 106 107 111 112 114 118 123 128 130 131 128 126 124 118 114 116 113 116 117 115
80 84 87 89 91 94 96 95 94 95 95 91 93 93 99 100 103 103 104 103 101 99 100 100 102 105 109 113 114 115 118 124 131 132 133 130 131 127 122 123 118 113 113 114
71 75 80 83 85 87 90 90 91 92 92 89 91 89 93 97 104 104 105 105 103 103 101 101 100 101 105 110 114 116 116 118 123 130 135 132 138 131 130 126 124 121 119 117
66 65 74 74 77 79 80 85 87 88 90 85 91 87 91 95 101 103 105 106 106 106 105 103 103 103 103 106 110 115 117 118 120 124 129 134 133 133 131 128 130 125 121 114
59 64 67 70 70 72 74 76 79 84 84 85 86 87 85 90 97 100 104 107 108 109 109 108 105 105 106 106 107 112 116 119 119 121 126 130 133 135 133 127 130 125 121 121
58 64 63 65 66 68 68 72 74 79 81 83 79 85 85 91 94 100 100 105 108 110 112 111 111 110 108 108 109 110 114 117 121 122 123 127 131 132 134 131 126 127 123 125
57 59 61 62 63 64 65 68 71 75 77 73 77 85 81 88 92 99 100 102 107 110 111 113 113 112 112 111 111 112 113 115 119 121 125 124 127 129 130 131 129 127 125 126
52 54 56 58 60 60 62 65 68 71 72 71 75 78 78 82 91 97 99 94 102 109 112 113 114 114 113 113 112 112 114 116 116 120 122 124 125 126 128 130 130 129 131 133
47 48 51 53 55 57 58 63 63 64 68 68 71 69 72 78 86 92 94 91 97 105 111 113 115 116 117 116 115 113 113 114 116 118 120 123 124 126 127 130 130 131 131 136
43 44 46 48 50 52 54 56 59 60 62 63 65 63 68 76 81 88 90 91 93 100 108 113 115 117 118 118 117 116 115 114 114 116 119 121 124 126 127 129 131 132 133 135
37 40 42 43 44 47 49 51 55 57 56 58 59 60 67 72 75 80 85 87 90 95 103 109 113 115 117 118 118 118 117 116 115 115 116 119 122 125 127 128 128 132 134 136
32 34 37 39 42 43 45 47 50 52 51 53 56 57 63 69 73 76 82 85 88 93 98 104 108 111 115 118 118 118 118 118 117 117 117 117 119 123 126 128 129 129 133 136
28 32 33 34 37 39 42 44 45 47 48 51 55 54 60 67 72 75 78 82 86 91 96 101 104 107 110 113 116 117 117 117 117 117 117 118 119 120 125 128 129 130 131 133
24 27 30 33 33 35 36 38 41 44 45 46 50 53 59 64 68 73 77 81 84 87 92 95 99 102 105 108 111 113 114 115 115 115 116 116 118 119 121 126 128 129 131 132
21 22 25 27 30 33 34 35 37 40 43 44 47 51 57 62 66 69 73 78 82 86 90 93 96 99 101 104 107 110 112 113 114 113 113 114 116 118 119 123 126 128 130 132
17 19 22 24 25 27 31 34 35 36 39 42 45 49 54 60 63 67 70 73 77 81 85 89 93 96 99 102 105 107 110 111 111 110 110 111 113 115 117 119 124 127 128 130
16 17 19 21 24 25 28 31 33 33 35 39 42 47 51 56 60 64 68 71 73 76 79 83 87 90 93 96 100 102 104 105 106 106 107 108 110 111 112 114 118 123 127 128
15 15 16 17 19 22 24 26 30 33 33 35 40 44 48 54 58 62 64 67 71 73 75 78 82 85 89 90 93 96 99 100 102 103 105 106 107 108 109 111 113 117 122 126
17 16 14 15 15 17 20 22 26 30 33 35 38 42 47 51 56 59 63 66 69 73 76 77 80 83 85 87 89 92 94 97 99 101 103 104 106 106 107 108 110 112 116 120
22 20 19 17 17 16 18 20 23 27 33 37 38 41 45 49 53 57 63 65 68 71 73 76 79 82 84 87 89 90 92 94 96 98 101 103 104 105 106 107 109 111 113 115
25 23 20 18 17 18 19 21 23 26 30 35 40 43 45 47 51 57 62 65 68 70 73 75 77 79 82 84 87 89 91 93 95 97 99 100 103 105 106 107 108 109 111 114
28 26 25 23 22 21 20 21 24 27 31 34 38 42 47 50 51 54 59 64 67 70 72 74 76 79 80 83 85 88 90 92 94 96 97 99 101 103 105 106 108 109 110 112
31 29 28 27 27 26 26 28 28 30 31 34 40 42 46 49 53 56 59 61 64 67 71 73 75 78 79 82 84 86 88 90 93 95 97 98 100 102 104 106 107 108 110 110
32 31 31 32 32 33 30 31 34 37 37 36 38 42 45 50 53 54 57 62 65 66 69 71 72 75 77 80 82 84 85 88 90 92 94 96 98 100 102 105 106 108 109 110
33 35 38 39 42 43 40 39 39 36 32 35 39 42 44 45 51 54 56 59 62 65 69 71 72 74 75 75 77 80 83 86 88 90 92 93 95 98 100 102 105 107 108 110
36 38 42 46 47 45 47 48 49 49 44 39 35 34 38 43 47 50 54 58 59 62 65 68 71 74 75 74 76 78 79 80 83 86 89 91 93 95 97 99 101 103 106 107
Wind_Direction
254 253 254 254 254 255 256 255 254 256 253 250 247 241 239 238 237 236 237 238 235 230 230 230 231 229 229 229 229 229 228 228 229 228 231 232 233 233 233 233 234 235 237 237
253 252 253 254 253 253 254 254 254 253 254 250 248 246 241 239 237 236 235 236 236 233 229 228 229 231 230 229 229 229 229 229 229 229 230 232 233 231 229 233 234 235 236 239
254 253 253 252 252 252 252 252 251 252 251 250 248 245 243 239 239 236 234 234 235 235 232 228 227 229 230 230 230 229 229 229 229 229 231 231 233 234 234 233 235 237 237 239
256 254 252 253 252 251 251 250 250 251 250 248 247 243 242 239 238 239 234 233 232 234 234 231 227 227 228 229 229 229 229 229 228 229 229 231 232 234 235 236 236 237 237 236
257 256 254 254 253 251 249 251 249 248 248 246 244 243 241 236 238 237 236 232 232 231 232 232 230 228 227 228 228 228 229 229 228 228 229 231 232 233 234 230 236 237 236 236
258 257 256 255 253 252 250 250 248 247 247 245 244 243 237 238 234 237 236 233 232 231 231 232 231 231 229 229 229 227 228 228 229 229 230 230 231 232 232 232 229 235 236 234
259 256 255 254 254 252 251 249 248 247 247 247 243 243 237 237 233 236 236 233 232 231 230 232 232 232 233 232 230 230 229 229 228 230 231 231 232 231 231 231 230 228 231 232
259 258 255 253 252 251 250 249 248 247 247 244 242 242 241 237 235 236 237 235 233 231 230 231 232 233 233 234 234 233 232 230 230 230 230 231 232 232 230 231 231 230 229 229
260 257 257 254 253 251 250 249 249 247 246 244 243 241 240 238 237 237 238 236 233 231 231 231 231 232 233 234 234 235 235 234 232 230 231 231 231 233 232 231 231 230 230 226
261 258 256 255 253 252 250 250 249 248 246 246 244 239 238 237 236 235 236 235 234 232 231 231 232 233 233 234 235 236 236 236 236 234 233 232 232 231 232 232 232 231 231 228
261 260 258 257 255 253 251 250 249 248 245 245 242 238 236 236 235 234 234 234 233 232 231 231 232 233 234 235 235 236 237 237 237 237 235 234 234 233 233 232 233 233 231 231
260 258 257 255 254 253 252 250 249 248 246 244 242 237 235 233 233 233 232 231 231 231 231 231 232 233 234 235 236 236 236 237 237 237 237 236 235 234 233 233 233 233 233 232
262 257 256 255 254 253 252 251 249 247 245 241 239 235 234 233 232 231 231 231 230 230 230 231 233 234 234 235 236 236 237 237 237 238 238 237 236 235 234 234 233 233 234 234
270 263 258 255 253 251 251 251 249 248 246 241 238 235 234 234 233 232 231 231 231 230 231 231 232 233 234 235 235 236 237 238 238 238 238 238 237 236 235 234 234 234 234 235
277 272 268 263 258 255 252 251 250 248 245 241 237 233 232 233 233 232 232 232 231 231 231 232 232 233 233 234 235 236 237 238 238 237 238 237 237 237 236 234 234 235 235 235
293 280 271 267 265 261 255 251 250 249 246 242 238 235 234 234 234 234 233 234 233 233 232 232 233 233 233 234 235 235 236 237 238 238 238 237 237 237 236 235 234 234 235 236
313 300 288 276 270 265 259 254 249 249 248 245 241 237 235 236 236 236 235 235 235 235 235 234 234 234 235 234 234 234 235 236 237 237 237 236 236 237 237 237 236 235 236 237
326 315 305 297 284 274 267 260 252 249 249 247 243 241 237 236 237 238 238 238 238 237 236 237 236 236 236 236 236 235 235 235 235 236 236 235 235 236 237 237 237 237 237 237
340 329 318 309 300 289 278 268 259 251 249 249 246 243 240 237 237 239 239 238 237 238 237 236 236 236 237 237 237 237 237 237 237 236 236 236 236 237 237 237 238 238 238 238
349 343 337 325 311 300 290 282 271 262 255 251 249 248 244 240 239 239 239 240 240 239 240 240 238 237 236 236 237 237 237 237 237 238 237 237 237 237 238 238 238 239 239 239
353 349 344 334 322 311 300 291 281 274 267 260 255 252 250 247 242 238 239 239 240 240 240 239 239 239 240 240 239 239 238 238 238 238 238 238 238 238 238 239 239 239 240 240
351 346 343 337 329 320 310 300 288 280 274 268 264 259 255 252 249 245 242 241 241 242 242 241 240 240 240 240 239 239 239 240 240 240 239 239 238 238 239 240 240 240 240 240
344 342 338 333 328 322 317 309 299 291 282 274 270 263 262 258 254 250 248 245 244 244 243 242 242 242 241 240 240 240 240 240 240 240 240 240 240 240 240 240 240 241 241 242
341 338 336 330 326 320 318 312 308 302 293 283 275 269 265 263 260 256 253 250 248 246 245 245 243 242 242 241 241 241 241 241 242 242 241 241 241 241 241 241 241 242 242 242
340 340 339 337 333 330 325 321 318 308 297 293 285 276 269 264 262 260 257 253 251 249 247 246 245 244 243 242 242 242 241 241 241 242 242 242 243 242 242 242 242 243 243 243
343 345 342 337 333 331 324 322 318 314 311 304 293 280 271 271 268 262 259 258 254 251 250 248 247 246 245 245 244 243 242 242 241 241 241 242 242 243 243 243 244 244 244 244